Time,TemperatureF,DewpointF,PressureIn,WindDirection,WindDirectionDegrees,WindSpeedMPH,WindSpeedGustMPH,Humidity,HourlyPrecipIn,Conditions,Clouds,dailyrainin,SolarRadiationWatts/m^2,SoftwareType,DateUTC
2013-05-29 00:11:00,71.0,47.0,-100.00,South,184,6.0,18.0,43,-99.99,,,0.00,0.000000,,2013-05-29 07:11:00,
2013-05-29 00:21:00,71.0,47.0,-100.00,South,184,6.0,18.0,43,-99.99,,,0.00,0.000000,,2013-05-29 07:21:00,
2013-05-29 00:34:00,71.0,47.0,-100.00,South,184,6.0,18.0,43,-99.99,,,0.00,0.000000,,2013-05-29 07:34:00,
2013-05-29 00:42:00,71.0,47.0,-100.00,South,184,6.0,18.0,43,-99.99,,,0.00,0.000000,,2013-05-29 07:42:00,
2013-05-29 01:11:00,70.0,37.0,-100.00,NNE,22,1.0,11.0,30,0.00,,,0.00,0.000000,,2013-05-29 08:11:00,
2013-05-29 01:21:00,70.0,37.0,-100.00,NNE,22,1.0,11.0,30,0.00,,,0.00,0.000000,,2013-05-29 08:21:00,
2013-05-29 01:32:00,70.0,37.0,-100.00,NNE,22,1.0,11.0,30,0.00,,,0.00,0.000000,,2013-05-29 08:32:00,
2013-05-29 01:41:00,70.0,37.0,-100.00,NNE,22,1.0,11.0,30,0.00,,,0.00,0.000000,,2013-05-29 08:41:00,
2013-05-29 02:11:00,70.0,37.0,-100.00,SSW,193,5.0,12.0,30,0.00,,,0.00,1.000000,,2013-05-29 09:11:00,
2013-05-29 02:21:00,70.0,37.0,-100.00,SSW,193,5.0,12.0,30,0.00,,,0.00,1.000000,,2013-05-29 09:21:00,
2013-05-29 02:33:00,70.0,37.0,-100.00,SSW,193,5.0,12.0,30,0.00,,,0.00,1.000000,,2013-05-29 09:33:00,
2013-05-29 03:12:00,64.0,47.0,-100.00,SW,231,7.0,8.0,55,-99.99,,,0.00,0.000000,,2013-05-29 10:12:00,
2013-05-29 03:22:00,64.0,47.0,-100.00,SW,231,7.0,8.0,55,-99.99,,,0.00,0.000000,,2013-05-29 10:22:00,
2013-05-29 03:32:00,64.0,47.0,-100.00,SW,231,7.0,8.0,55,-99.99,,,0.00,0.000000,,2013-05-29 10:32:00,
2013-05-29 03:42:00,64.0,47.0,-100.00,SW,231,7.0,8.0,55,-99.99,,,0.00,0.000000,,2013-05-29 10:42:00,
2013-05-29 04:12:00,64.0,47.0,-100.00,WSW,245,2.0,6.0,53,0.00,,,0.00,0.000000,,2013-05-29 11:12:00,
2013-05-29 04:21:00,64.0,47.0,-100.00,WSW,245,2.0,6.0,53,0.00,,,0.00,0.000000,,2013-05-29 11:21:00,
2013-05-29 04:32:00,64.0,47.0,-100.00,WSW,245,2.0,6.0,53,0.00,,,0.00,0.000000,,2013-05-29 11:32:00,
2013-05-29 04:41:00,64.0,47.0,-100.00,WSW,245,2.0,6.0,53,0.00,,,0.00,0.000000,,2013-05-29 11:41:00,
2013-05-29 05:11:00,65.0,47.0,-100.00,NE,56,2.0,7.0,53,0.00,,,0.00,0.000000,,2013-05-29 12:11:00,
2013-05-29 05:21:00,65.0,47.0,-100.00,NE,56,2.0,7.0,53,0.00,,,0.00,0.000000,,2013-05-29 12:21:00,
2013-05-29 06:11:00,65.0,44.0,-100.00,East,92,9.0,12.0,47,-99.99,,,0.00,1.000000,,2013-05-29 13:11:00,
2013-05-29 06:21:00,65.0,44.0,-100.00,East,92,9.0,12.0,47,-99.99,,,0.00,1.000000,,2013-05-29 13:21:00,
2013-05-29 07:11:00,68.0,45.0,-100.00,ESE,106,7.0,13.0,43,-99.99,,,0.00,75.000000,,2013-05-29 14:11:00,
2013-05-29 07:21:00,68.0,45.0,-100.00,ESE,106,7.0,13.0,43,-99.99,,,0.00,75.000000,,2013-05-29 14:21:00,
2013-05-29 07:41:00,68.0,45.0,-100.00,ESE,106,7.0,13.0,43,-99.99,,,0.00,75.000000,,2013-05-29 14:41:00,
2013-05-29 08:11:00,69.0,42.0,-100.00,East,84,13.0,18.0,38,0.00,,,0.00,264.000000,,2013-05-29 15:11:00,
2013-05-29 08:21:00,69.0,42.0,-100.00,East,84,13.0,18.0,38,0.00,,,0.00,264.000000,,2013-05-29 15:21:00,
2013-05-29 08:32:00,69.0,42.0,-100.00,East,84,13.0,18.0,38,0.00,,,0.00,264.000000,,2013-05-29 15:32:00,
2013-05-29 08:42:00,69.0,42.0,-100.00,East,84,13.0,18.0,38,0.00,,,0.00,264.000000,,2013-05-29 15:42:00,
2013-05-29 09:12:00,74.0,39.0,-100.00,ENE,69,17.0,24.0,28,0.00,,,0.00,464.000000,,2013-05-29 16:12:00,
2013-05-29 09:22:00,74.0,39.0,-100.00,ENE,69,17.0,24.0,28,0.00,,,0.00,464.000000,,2013-05-29 16:22:00,
2013-05-29 09:32:00,74.0,39.0,-100.00,ENE,69,17.0,24.0,28,0.00,,,0.00,464.000000,,2013-05-29 16:32:00,
2013-05-29 10:12:00,74.0,41.0,-100.00,ENE,75,19.0,30.0,31,0.00,,,0.00,647.000000,,2013-05-29 17:12:00,
2013-05-29 10:22:00,74.0,41.0,-100.00,ENE,75,19.0,30.0,31,0.00,,,0.00,647.000000,,2013-05-29 17:22:00,
2013-05-29 10:32:00,74.0,41.0,-100.00,ENE,75,19.0,30.0,31,0.00,,,0.00,647.000000,,2013-05-29 17:32:00,
2013-05-29 10:42:00,74.0,41.0,-100.00,ENE,75,19.0,30.0,31,0.00,,,0.00,647.000000,,2013-05-29 17:42:00,
2013-05-29 11:13:00,78.0,43.0,-100.00,East,85,15.0,28.0,29,0.00,,,0.00,804.000000,,2013-05-29 18:13:00,
2013-05-29 11:22:00,78.0,43.0,-100.00,East,85,15.0,28.0,29,0.00,,,0.00,804.000000,,2013-05-29 18:22:00,
2013-05-29 11:32:00,78.0,43.0,-100.00,East,85,15.0,28.0,29,0.00,,,0.00,804.000000,,2013-05-29 18:32:00,
2013-05-29 11:41:00,78.0,43.0,-100.00,East,85,15.0,28.0,29,0.00,,,0.00,804.000000,,2013-05-29 18:41:00,
2013-05-29 12:11:00,80.0,41.0,-100.00,NNE,27,6.0,22.0,25,0.00,,,0.00,919.000000,,2013-05-29 19:11:00,
2013-05-29 12:21:00,80.0,41.0,-100.00,NNE,27,6.0,22.0,25,0.00,,,0.00,919.000000,,2013-05-29 19:21:00,
2013-05-29 12:32:00,80.0,41.0,-100.00,NNE,27,6.0,22.0,25,0.00,,,0.00,919.000000,,2013-05-29 19:32:00,
2013-05-29 12:44:00,80.0,41.0,-100.00,NNE,27,6.0,22.0,25,0.00,,,0.00,919.000000,,2013-05-29 19:44:00,
2013-05-29 13:11:00,84.0,49.0,-100.00,WNW,299,8.0,18.0,30,0.00,,,0.00,964.000000,,2013-05-29 20:11:00,
2013-05-29 13:22:00,84.0,49.0,-100.00,WNW,299,8.0,18.0,30,0.00,,,0.00,964.000000,,2013-05-29 20:22:00,
2013-05-29 13:32:00,84.0,49.0,-100.00,WNW,299,8.0,18.0,30,0.00,,,0.00,964.000000,,2013-05-29 20:32:00,
2013-05-29 13:42:00,84.0,49.0,-100.00,WNW,299,8.0,18.0,30,0.00,,,0.00,964.000000,,2013-05-29 20:42:00,
2013-05-29 14:12:00,80.0,42.0,-100.00,WSW,255,16.0,22.0,26,0.00,,,0.00,977.000000,,2013-05-29 21:12:00,
2013-05-29 14:22:00,80.0,42.0,-100.00,WSW,255,16.0,22.0,26,0.00,,,0.00,977.000000,,2013-05-29 21:22:00,
2013-05-29 14:33:00,80.0,42.0,-100.00,WSW,255,16.0,22.0,26,0.00,,,0.00,977.000000,,2013-05-29 21:33:00,
2013-05-29 14:43:00,80.0,42.0,-100.00,WSW,255,16.0,22.0,26,0.00,,,0.00,977.000000,,2013-05-29 21:43:00,
2013-05-29 15:12:00,80.0,43.0,-100.00,WSW,253,16.0,24.0,27,0.00,,,0.00,931.000000,,2013-05-29 22:12:00,
2013-05-29 15:23:00,80.0,43.0,-100.00,WSW,253,16.0,24.0,27,0.00,,,0.00,931.000000,,2013-05-29 22:23:00,
2013-05-29 15:33:00,80.0,43.0,-100.00,WSW,253,16.0,24.0,27,0.00,,,0.00,931.000000,,2013-05-29 22:33:00,
2013-05-29 15:42:00,80.0,43.0,-100.00,WSW,253,16.0,24.0,27,0.00,,,0.00,931.000000,,2013-05-29 22:42:00,
2013-05-29 16:12:00,80.0,47.0,-100.00,SW,230,11.0,24.0,31,0.00,,,0.00,828.000000,,2013-05-29 23:12:00,
2013-05-29 16:21:00,80.0,47.0,-100.00,SW,230,11.0,24.0,31,0.00,,,0.00,828.000000,,2013-05-29 23:21:00,
2013-05-29 16:33:00,80.0,47.0,-100.00,SW,230,11.0,24.0,31,0.00,,,0.00,828.000000,,2013-05-29 23:33:00,
2013-05-29 16:42:00,80.0,47.0,-100.00,SW,230,11.0,24.0,31,0.00,,,0.00,828.000000,,2013-05-29 23:42:00,
2013-05-29 17:11:00,81.0,47.0,-100.00,West,260,8.0,17.0,31,0.00,,,0.00,676.000000,,2013-05-30 00:11:00,
2013-05-29 17:21:00,81.0,47.0,-100.00,West,260,8.0,17.0,31,0.00,,,0.00,676.000000,,2013-05-30 00:21:00,
2013-05-29 17:31:00,81.0,47.0,-100.00,West,260,8.0,17.0,31,0.00,,,0.00,676.000000,,2013-05-30 00:31:00,
2013-05-29 17:41:00,81.0,47.0,-100.00,West,260,8.0,17.0,31,0.00,,,0.00,676.000000,,2013-05-30 00:41:00,
2013-05-29 18:11:00,79.0,49.0,-100.00,WNW,287,10.0,15.0,35,0.00,,,0.00,490.000000,,2013-05-30 01:11:00,
2013-05-29 18:21:00,79.0,49.0,-100.00,WNW,287,10.0,15.0,35,0.00,,,0.00,490.000000,,2013-05-30 01:21:00,
2013-05-29 18:31:00,79.0,49.0,-100.00,WNW,287,10.0,15.0,35,0.00,,,0.00,490.000000,,2013-05-30 01:31:00,
2013-05-29 18:41:00,79.0,49.0,-100.00,WNW,287,10.0,15.0,35,0.00,,,0.00,490.000000,,2013-05-30 01:41:00,
2013-05-29 19:11:00,73.0,50.0,-100.00,West,274,12.0,15.0,44,0.00,,,0.00,285.000000,,2013-05-30 02:11:00,
2013-05-29 19:21:00,73.0,50.0,-100.00,West,274,12.0,15.0,44,0.00,,,0.00,285.000000,,2013-05-30 02:21:00,
2013-05-29 19:32:00,73.0,50.0,-100.00,West,274,12.0,15.0,44,0.00,,,0.00,285.000000,,2013-05-30 02:32:00,
2013-05-29 19:42:00,73.0,50.0,-100.00,West,274,12.0,15.0,44,0.00,,,0.00,285.000000,,2013-05-30 02:42:00,
2013-05-29 20:11:00,70.0,52.0,-100.00,WSW,250,6.0,13.0,52,0.00,,,0.00,93.000000,,2013-05-30 03:11:00,
2013-05-29 20:21:00,70.0,52.0,-100.00,WSW,250,6.0,13.0,52,0.00,,,0.00,93.000000,,2013-05-30 03:21:00,
2013-05-29 20:33:00,70.0,52.0,-100.00,WSW,250,6.0,13.0,52,0.00,,,0.00,93.000000,,2013-05-30 03:33:00,
2013-05-29 20:43:00,70.0,52.0,-100.00,WSW,250,6.0,13.0,52,0.00,,,0.00,93.000000,,2013-05-30 03:43:00,
2013-05-29 21:12:00,72.0,48.0,-100.00,East,85,10.0,14.0,43,0.00,,,0.00,3.000000,,2013-05-30 04:12:00,
2013-05-29 21:23:00,72.0,48.0,-100.00,East,85,10.0,14.0,43,0.00,,,0.00,3.000000,,2013-05-30 04:23:00,
2013-05-29 21:32:00,72.0,48.0,-100.00,East,85,10.0,14.0,43,0.00,,,0.00,3.000000,,2013-05-30 04:32:00,
2013-05-29 21:42:00,72.0,48.0,-100.00,East,85,10.0,14.0,43,0.00,,,0.00,3.000000,,2013-05-30 04:42:00,
2013-05-29 22:12:00,73.0,43.0,-100.00,East,93,14.0,19.0,34,0.00,,,0.00,0.000000,,2013-05-30 05:12:00,
2013-05-29 22:22:00,73.0,43.0,-100.00,East,93,14.0,19.0,34,0.00,,,0.00,0.000000,,2013-05-30 05:22:00,
2013-05-29 22:32:00,73.0,43.0,-100.00,East,93,14.0,19.0,34,0.00,,,0.00,0.000000,,2013-05-30 05:32:00,
2013-05-29 22:42:00,73.0,43.0,-100.00,East,93,14.0,19.0,34,0.00,,,0.00,0.000000,,2013-05-30 05:42:00,
2013-05-29 23:12:00,71.0,44.0,-100.00,East,95,12.0,19.0,38,0.00,,,0.00,0.000000,,2013-05-30 06:12:00,
2013-05-29 23:21:00,71.0,44.0,-100.00,East,95,12.0,19.0,38,0.00,,,0.00,0.000000,,2013-05-30 06:21:00,
2013-05-29 23:32:00,71.0,44.0,-100.00,East,95,12.0,19.0,38,0.00,,,0.00,0.000000,,2013-05-30 06:32:00,
2013-05-29 23:41:00,71.0,44.0,-100.00,East,95,12.0,19.0,38,0.00,,,0.00,0.000000,,2013-05-30 06:41:00,